Home > Time Zones > World Clock > Weather > Greece > Ilio > Past weeks

Flag for Greece Weather past 2 weeks in Ilio, Greece

Now
75 °F

Sunny.


Feels Like: 77 °F
Forecast: 56 / 77 °F
Wind: 12 mph from North

Location: Elefsis Airport

Current Time: Oct 20, 2014 at 4:12:39 PM

Latest Report: Oct 20, 2014 at 3:20 PM


Visibility: 10 mi

Pressure: 30.09 "Hg

Humidity: 29%

Dew point: 41 °F

Location of IlioLocation

Historic Weather in Ilio — Graph

°F

Ilio temperature yesterday

Maximum temperature yesterday: 73 °F (at 12:20 AM)
Minimum temperature yesterday: 61 °F (at 9:20 PM)
Average temperature yesterday: 68 °F

Past Weeks' High & Low Weather Summary

 TemperatureHumidityPressure
High88 °F (Oct 16, 3:50 PM)94% (Oct 16, 4:50 AM)30.30 "Hg (Oct 16, 4:50 AM)
Low57 °F (Oct 12, 7:50 AM)22% (Oct 16, 3:50 PM)29.95 "Hg (Oct 8, 3:50 PM)
Average70 °F58%30.06 "Hg
* Reported Oct 5 2:20 PM — Oct 20 2:50 PM, Ilio, Weather by CustomWeather, © 2014

Note: Actual official high and low records may vary slightly from our data, if they occured in-between our weather recording intervals... More about our weather records

Advertising

Ilio weather history for previous 24 hours

 ConditionsComfort  
Time TempWeatherWind HumidityBarometerVisibility
2:50 PM
Oct 20
75 °FSunny.12 mph31%30.09 "Hg10 mi
2:20 PM73 °FSunny.12 mph33%30.12 "Hg10 mi
1:50 PM73 °FSunny.12 mph36%30.12 "Hg10 mi
1:20 PM72 °FPassing clouds.12 mph38%30.15 "HgN/A
12:50 PM72 °FPassing clouds.12 mph41%30.18 "HgN/A
12:20 PM70 °FPassing clouds.14 mph43%30.18 "HgN/A
11:50 AM70 °FPassing clouds.14 mph43%30.21 "HgN/A
10:50 AM66 °FPassing clouds.12 mph49%30.21 "HgN/A
10:20 AM66 °FPassing clouds.14 mph49%30.21 "HgN/A
9:50 AM64 °FPassing clouds.12 mph56%30.21 "HgN/A
9:20 AM64 °FPassing clouds.14 mph52%30.21 "HgN/A
8:50 AM63 °FPassing clouds.12 mph56%30.21 "HgN/A
7:50 AM59 °FPassing clouds.12 mph63%30.21 "HgN/A
6:20 AM61 °FClear.10 mph55%30.21 "Hg10 mi
5:50 AM61 °FClear.9 mph55%30.21 "Hg10 mi
5:20 AM61 °FPassing clouds.8 mph55%30.21 "HgN/A
4:50 AM61 °FPassing clouds.9 mph55%30.21 "HgN/A
4:20 AM61 °FPassing clouds.9 mph52%30.21 "HgN/A
3:50 AM61 °FPassing clouds.8 mph55%30.24 "HgN/A
3:20 AM61 °FPassing clouds.10 mph52%30.24 "HgN/A
2:50 AM61 °FPassing clouds.9 mph52%30.24 "HgN/A
2:20 AM61 °FPassing clouds.7 mph52%30.27 "HgN/A
1:50 AM59 °FPassing clouds.10 mph55%30.27 "HgN/A
1:20 AM59 °FPassing clouds.7 mph55%30.27 "HgN/A
12:50 AM61 °FPassing clouds.8 mph48%30.27 "HgN/A
12:20 AM61 °FPassing clouds.7 mph52%30.30 "HgN/A
11:50 PM
Oct 19
61 °FPassing clouds.7 mph52%30.30 "HgN/A
11:20 PM61 °FPassing clouds.9 mph52%30.30 "HgN/A
10:50 PM61 °FPassing clouds.9 mph48%30.30 "HgN/A
10:20 PM61 °FPassing clouds.9 mph52%30.30 "HgN/A
9:50 PM61 °FPassing clouds.8 mph52%30.30 "HgN/A
9:20 PM61 °FPassing clouds.9 mph52%30.30 "HgN/A
8:50 PM63 °FPassing clouds.10 mph49%30.30 "HgN/A
8:20 PM63 °FPassing clouds.7 mph45%30.30 "HgN/A
7:50 PM63 °FPassing clouds.12 mph45%30.30 "HgN/A
7:20 PM64 °FPassing clouds.16 mph43%30.27 "HgN/A
6:50 PM64 °FPassing clouds.13 mph43%30.27 "HgN/A
6:20 PM66 °FPassing clouds.14 mph40%30.27 "HgN/A
5:50 PM68 °FPassing clouds.15 mph38%30.27 "HgN/A
5:20 PM68 °FPassing clouds.14 mph38%30.27 "HgN/A
4:50 PM70 °FPassing clouds.18 mph35%30.24 "HgN/A
4:20 PM72 °FScattered clouds.16 mph33%30.24 "HgN/A
Weather by CustomWeather, © 2014

See weather overviewHow to use our weather pages